Kenosha, WI

1:51 PM CDT on August 18, 2017 (GMT -0500)
Kenosha Regional

Weather History for KENW - October, 2013

Change the Weather History Date:

Thursday, October 10, 2013

  Actual Average Record
Temperature  
Mean Temperature 56 °F -  
Max Temperature 73 °F 58 °F 84 °F (1949)
Min Temperature 39 °F 42 °F 27 °F (1964)
Degree Days  
Heating Degree Days 10    
Growing Degree Days 6 (Base 50)    
Moisture  
Dew Point 46 °F    
Average Humidity 87    
Maximum Humidity 100    
Minimum Humidity 44    
Precipitation  
Precipitation 0.00 in - - ()
Sea Level Pressure  
Sea Level Pressure 30.13 in    
Wind  
Wind Speed 1 mph (ESE)    
Max Wind Speed 13 mph    
Max Gust Speed -    
Visibility 4 miles    
Events Fog    
Averages and records for this station are not official NWS values.
T = Trace of Precipitation, MM = Missing Value Source: NWS Daily Summary

Daily Weather History Graph

Daily Weather History Graph

Search for Another Location

Airport or City:

Trip Planner

Search our weather history database for the weather conditions in past years. The results will help you decide how hot, cold, wet, or windy it might be!

Date:

Astronomy

Oct. 10, 2013 Rise Set
Actual Time 6:59 AM CDT 6:17 PM CDT
Civil Twilight 6:31 AM CDT 6:45 PM CDT
Nautical Twilight 5:58 AM CDT 7:18 PM CDT
Astronomical Twilight 5:25 AM CDT 7:50 PM CDT
Moon 12:55 PM CDT (10/10) 10:50 PM CDT (10/10)
Length of Visible Light 12h 14m
Length of Day
11h 17m
Waxing Crescent, 36% of the Moon is Illuminated
Oct 10
Waxing Crescent
Oct 11
First Quarter
Oct 18
Full
Oct 26
Last Quarter
Nov 3
New

Hourly Weather History & Observations

Time (CDT) Temp. Dew Point Humidity Pressure Visibility Wind Dir Wind Speed Gust Speed Precip Events Conditions
12:53 AM 45.0 °F 44.1 °F 97% 30.17 in 5.0 mi Calm Calm - N/A   Clear
1:53 AM 45.0 °F 43.0 °F 93% 30.17 in 9.0 mi Calm Calm - N/A   Clear
2:53 AM 42.1 °F 41.0 °F 96% 30.17 in 4.0 mi Calm Calm - N/A   Clear
3:00 AM 42.8 °F 42.8 °F 100% 30.16 in 4.0 mi Calm Calm - N/A   Scattered Clouds
3:06 AM 42.8 °F 42.8 °F 100% 30.16 in 2.0 mi Calm Calm - N/A   Mostly Cloudy
3:08 AM 42.8 °F 42.8 °F 100% 30.16 in 0.8 mi Calm Calm - N/A   Mist
3:16 AM 42.8 °F 41.0 °F 93% 30.16 in 0.2 mi Calm Calm - N/A Fog Fog
3:43 AM 42.8 °F 41.0 °F 93% 30.16 in 1.2 mi Calm Calm - N/A   Overcast
3:53 AM 42.1 °F 41.0 °F 96% 30.17 in 1.2 mi Calm Calm - N/A   Overcast
4:05 AM 42.8 °F 41.0 °F 93% 30.16 in 2.5 mi Calm Calm - N/A   Overcast
4:12 AM 42.8 °F 41.0 °F 93% 30.16 in 0.8 mi Calm Calm - N/A   Mist
4:43 AM 41.0 °F 39.2 °F 93% 30.16 in 0.2 mi Calm Calm - N/A Fog Fog
4:50 AM 41.0 °F 39.2 °F 93% 30.16 in 0.2 mi Calm Calm - N/A Fog Fog
4:53 AM 41.0 °F 39.9 °F 96% 30.17 in 0.2 mi Calm Calm - N/A Fog Fog
5:00 AM 41.0 °F 39.2 °F 93% 30.16 in 0.2 mi Calm Calm - N/A Fog Fog
5:07 AM 41.0 °F 39.2 °F 93% 30.16 in 0.8 mi Calm Calm - N/A   Mist
5:12 AM 42.8 °F 39.2 °F 87% 30.16 in 2.5 mi Calm Calm - N/A   Mostly Cloudy
5:18 AM 41.0 °F 39.2 °F 93% 30.16 in 0.8 mi Calm Calm - N/A   Mist
5:30 AM 39.2 °F 39.2 °F 100% 30.16 in 0.2 mi Calm Calm - N/A Fog Fog
5:53 AM 41.0 °F 39.9 °F 96% 30.17 in 0.2 mi Calm Calm - N/A Fog Fog
6:53 AM 41.0 °F 39.9 °F 96% 30.19 in 0.2 mi Calm Calm - N/A Fog Fog
6:57 AM 41.0 °F 39.2 °F 93% 30.17 in 0.2 mi Calm Calm - N/A Fog Shallow Fog
7:37 AM 42.8 °F 41.0 °F 93% 30.18 in 6.0 mi Calm Calm - N/A   Clear
7:53 AM 46.0 °F 45.0 °F 96% 30.20 in 6.0 mi Calm Calm - N/A   Clear
8:53 AM 55.0 °F 51.1 °F 86% 30.19 in 6.0 mi Calm Calm - N/A   Clear
9:53 AM 63.0 °F 52.0 °F 67% 30.19 in 10.0 mi Calm Calm - N/A   Clear
10:53 AM 68.0 °F 48.9 °F 50% 30.19 in 10.0 mi South 3.5 mph - N/A   Clear
11:53 AM 71.1 °F 48.0 °F 44% 30.17 in 10.0 mi Variable 3.5 mph - N/A   Clear
12:53 PM 72.0 °F 51.1 °F 48% 30.15 in 10.0 mi East 9.2 mph - N/A   Clear
1:53 PM 72.0 °F 48.9 °F 44% 30.13 in 10.0 mi ESE 12.7 mph - N/A   Clear
2:53 PM 69.1 °F 48.0 °F 47% 30.12 in 10.0 mi ESE 10.4 mph - N/A   Clear
3:53 PM 66.9 °F 48.9 °F 52% 30.11 in 10.0 mi SE 9.2 mph - N/A   Clear
4:53 PM 66.9 °F 52.0 °F 59% 30.10 in 10.0 mi ESE 6.9 mph - N/A   Clear
5:53 PM 64.9 °F 52.0 °F 63% 30.09 in 10.0 mi SE 6.9 mph - N/A   Clear
6:53 PM 57.9 °F 52.0 °F 81% 30.10 in 10.0 mi East 4.6 mph - N/A   Clear
7:53 PM 54.0 °F 52.0 °F 93% 30.10 in 4.0 mi Calm Calm - N/A   Clear
8:53 PM 52.0 °F 50.0 °F 93% 30.09 in 4.0 mi East 4.6 mph - N/A   Clear
8:59 PM 51.8 °F 50.0 °F 94% 30.08 in 0.8 mi East 4.6 mph - N/A   Clear
9:13 PM 51.8 °F 51.8 °F 100% 30.08 in 2.0 mi East 3.5 mph - N/A   Clear
9:24 PM 51.8 °F 51.8 °F 100% 30.09 in 1.2 mi Calm Calm - N/A   Clear
9:51 PM 53.6 °F 51.8 °F 94% 30.08 in 0.8 mi East 3.5 mph - N/A   Clear
9:53 PM 53.1 °F 51.1 °F 93% 30.09 in 0.5 mi East 3.5 mph - N/A Fog Fog
10:14 PM 51.8 °F 50.0 °F 94% 30.08 in 0.2 mi Calm Calm - N/A Fog Fog
10:33 PM 50.0 °F 48.2 °F 94% 30.08 in 1.2 mi Calm Calm - N/A   Clear
10:43 PM 50.0 °F 48.2 °F 94% 30.08 in 0.5 mi Calm Calm - N/A Fog Fog
10:50 PM 50.0 °F 48.2 °F 94% 30.08 in 2.0 mi Calm Calm - N/A   Clear
10:53 PM 50.0 °F 48.9 °F 96% 30.08 in 2.5 mi Calm Calm - N/A   Clear
11:01 PM 50.0 °F 48.2 °F 94% 30.07 in 1.0 mi Calm Calm - N/A   Clear
11:12 PM 50.0 °F 50.0 °F 100% 30.07 in 0.5 mi Calm Calm - N/A Fog Fog
11:23 PM 51.8 °F 50.0 °F 94% 30.07 in 1.5 mi Calm Calm - N/A   Clear
11:31 PM 51.8 °F 51.8 °F 100% 30.07 in 2.5 mi Calm Calm - N/A   Clear
11:49 PM 53.6 °F 51.8 °F 94% 30.07 in 3.0 mi Calm Calm - N/A   Clear
11:53 PM 54.0 °F 52.0 °F 93% 30.07 in 4.0 mi Calm Calm - N/A   Clear